TCA7640 SVBM-SKBO

Flight info

Callsign TCA7640
Flight time 1h 17m
Altitude 38000
Route ATEXA1 KOLEG UW14 BRM UW8 LFA UW34 CUC UW26 EJA UQ119 ILSEV ILSEV4W
Aircraft A20N/M-SDE2E3FGHIRWXY/LB1

Departure

Time 2026-04-15 21:09
Airport Jacinto Lara International Airport (SVBM)

Arrival

Time 2026-04-15 22:26
Airport El Dorado International Airport (SKBO)
Time Latitude Longitude Altitude Speed Heading
2026-04-15 20:51 10.04521 -69.36008 2034 ft 0 kts 350°
2026-04-15 21:00 10.04515 -69.36006 2034 ft 2 kts 351°
2026-04-15 21:01 10.04495 -69.36004 2034 ft 3 kts 354°
2026-04-15 21:01 10.04475 -69.36001 2042 ft 3 kts 343°
2026-04-15 21:01 10.04457 -69.35994 2043 ft 3 kts 335°
2026-04-15 21:01 10.04438 -69.35985 2037 ft 3 kts 335°
2026-04-15 21:02 10.04420 -69.35976 2034 ft 2 kts 327°
2026-04-15 21:02 10.04412 -69.35971 2034 ft 1 kts 325°
2026-04-15 21:02 10.04411 -69.35971 2034 ft 0 kts 325°
2026-04-15 21:04 10.04412 -69.35971 2034 ft 1 kts 325°
2026-04-15 21:05 10.04415 -69.35976 2034 ft 1 kts 304°
2026-04-15 21:05 10.04414 -69.35986 2034 ft 2 kts 257°
2026-04-15 21:05 10.04410 -69.36014 2040 ft 6 kts 261°
2026-04-15 21:05 10.04401 -69.36065 2034 ft 9 kts 261°
2026-04-15 21:06 10.04390 -69.36139 2043 ft 12 kts 261°
2026-04-15 21:06 10.04375 -69.36231 2038 ft 15 kts 261°
2026-04-15 21:06 10.04357 -69.36341 2039 ft 17 kts 260°
2026-04-15 21:06 10.04338 -69.36467 2039 ft 19 kts 261°
2026-04-15 21:07 10.04315 -69.36608 2039 ft 21 kts 261°
2026-04-15 21:07 10.04290 -69.36761 2042 ft 23 kts 261°
2026-04-15 21:07 10.04263 -69.36925 2038 ft 24 kts 260°
2026-04-15 21:07 10.04240 -69.37074 2036 ft 17 kts 257°
2026-04-15 21:08 10.04158 -69.37126 2040 ft 16 kts 177°
2026-04-15 21:08 10.04071 -69.37063 2035 ft 17 kts 96°
2026-04-15 21:08 10.04108 -69.36788 2035 ft 82 kts 81°
2026-04-15 21:08 10.04238 -69.35940 2037 ft 157 kts 81°
2026-04-15 21:09 10.04439 -69.34659 2173 ft 202 kts 81°
2026-04-15 21:09 10.04712 -69.33206 2784 ft 213 kts 79°
2026-04-15 21:09 10.05047 -69.31734 3467 ft 215 kts 77°
2026-04-15 21:09 10.05429 -69.30264 4197 ft 215 kts 77°
2026-04-15 21:10 10.05685 -69.28793 5050 ft 207 kts 85°
2026-04-15 21:10 10.05794 -69.27350 5844 ft 206 kts 87°
2026-04-15 21:10 10.05909 -69.25866 6392 ft 217 kts 85°
2026-04-15 21:10 10.06007 -69.24325 6933 ft 220 kts 94°
2026-04-15 21:11 10.05896 -69.22757 7158 ft 225 kts 97°
2026-04-15 21:11 10.05319 -69.21299 6960 ft 236 kts 129°
2026-04-15 21:11 10.03897 -69.20245 6972 ft 273 kts 158°
2026-04-15 21:11 10.02000 -69.19938 6968 ft 281 kts 184°
2026-04-15 21:12 10.00140 -69.20530 6976 ft 284 kts 211°
2026-04-15 21:12 9.98744 -69.21931 7214 ft 288 kts 238°
2026-04-15 21:12 9.98115 -69.23869 7708 ft 293 kts 265°
2026-04-15 21:12 9.98377 -69.25913 8203 ft 297 kts 291°
2026-04-15 21:13 9.99442 -69.27704 8715 ft 300 kts 309°
2026-04-15 21:13 10.00816 -69.29304 9213 ft 302 kts 314°
2026-04-15 21:13 10.02225 -69.30891 9713 ft 303 kts 308°
2026-04-15 21:13 10.03326 -69.32724 10218 ft 310 kts 292°
2026-04-15 21:14 10.03815 -69.34892 10738 ft 324 kts 270°
2026-04-15 21:14 10.03430 -69.37174 11247 ft 337 kts 248°
2026-04-15 21:14 10.02398 -69.39355 11762 ft 346 kts 240°
2026-04-15 21:14 10.01228 -69.41492 12261 ft 347 kts 239°
2026-04-15 21:15 10.00053 -69.43632 12751 ft 348 kts 240°
2026-04-15 21:15 9.98893 -69.45804 13265 ft 351 kts 241°
2026-04-15 21:15 9.97747 -69.47995 13767 ft 353 kts 241°
2026-04-15 21:15 9.96603 -69.50210 14269 ft 356 kts 242°
2026-04-15 21:16 9.95461 -69.52444 14772 ft 358 kts 242°
2026-04-15 21:16 9.94316 -69.54690 15274 ft 359 kts 242°
2026-04-15 21:16 9.93166 -69.56949 15777 ft 361 kts 243°
2026-04-15 21:16 9.92006 -69.59220 16281 ft 363 kts 243°
2026-04-15 21:17 9.90836 -69.61501 16786 ft 367 kts 243°
2026-04-15 21:17 9.89661 -69.63801 17279 ft 368 kts 243°
2026-04-15 21:17 9.88477 -69.66116 17789 ft 371 kts 243°
2026-04-15 21:17 9.87290 -69.68440 18284 ft 373 kts 243°
2026-04-15 21:18 9.86108 -69.70754 18782 ft 376 kts 243°
2026-04-15 21:18 9.84898 -69.73120 19283 ft 380 kts 243°
2026-04-15 21:18 9.83675 -69.75512 19788 ft 384 kts 243°
2026-04-15 21:18 9.82448 -69.77919 20292 ft 386 kts 244°
2026-04-15 21:19 9.81202 -69.80352 20789 ft 391 kts 243°
2026-04-15 21:19 9.79946 -69.82806 21290 ft 394 kts 243°
2026-04-15 21:19 9.78678 -69.85281 21792 ft 397 kts 243°
2026-04-15 21:19 9.77404 -69.87776 22293 ft 401 kts 244°
2026-04-15 21:20 9.76114 -69.90293 22791 ft 404 kts 244°
2026-04-15 21:20 9.74816 -69.92825 23296 ft 406 kts 243°
2026-04-15 21:20 9.73512 -69.95370 23794 ft 408 kts 244°
2026-04-15 21:20 9.72201 -69.97931 24298 ft 410 kts 244°
2026-04-15 21:21 9.70885 -70.00500 24799 ft 411 kts 244°
2026-04-15 21:21 9.69564 -70.03079 25301 ft 412 kts 244°
2026-04-15 21:21 9.68243 -70.05658 25797 ft 413 kts 244°
2026-04-15 21:21 9.66921 -70.08239 26301 ft 413 kts 244°
2026-04-15 21:22 9.65596 -70.10822 26803 ft 413 kts 244°
2026-04-15 21:22 9.64271 -70.13408 27301 ft 413 kts 244°
2026-04-15 21:22 9.62947 -70.15989 27803 ft 413 kts 244°
2026-04-15 21:22 9.61622 -70.18571 28303 ft 412 kts 244°
2026-04-15 21:23 9.60300 -70.21145 28800 ft 411 kts 244°
2026-04-15 21:23 9.58982 -70.23713 29300 ft 410 kts 244°
2026-04-15 21:23 9.57668 -70.26272 29797 ft 409 kts 244°
2026-04-15 21:23 9.56358 -70.28826 30295 ft 408 kts 244°
2026-04-15 21:24 9.55075 -70.31327 30774 ft 406 kts 244°
2026-04-15 21:24 9.53774 -70.33860 31281 ft 405 kts 244°
2026-04-15 21:24 9.52475 -70.36390 31779 ft 403 kts 244°
2026-04-15 21:24 9.51185 -70.38903 32280 ft 401 kts 244°
2026-04-15 21:25 9.49902 -70.41403 32777 ft 399 kts 243°
2026-04-15 21:25 9.48628 -70.43885 33272 ft 396 kts 243°
2026-04-15 21:25 9.47364 -70.46346 33771 ft 392 kts 243°
2026-04-15 21:25 9.46112 -70.48782 34266 ft 388 kts 243°
2026-04-15 21:26 9.44875 -70.51190 34760 ft 383 kts 243°
2026-04-15 21:26 9.43653 -70.53566 35262 ft 378 kts 243°
2026-04-15 21:26 9.42410 -70.55888 35746 ft 372 kts 239°
2026-04-15 21:26 9.40977 -70.58046 36239 ft 366 kts 235°
2026-04-15 21:27 9.39546 -70.60108 36721 ft 359 kts 236°
2026-04-15 21:27 9.38134 -70.62159 37205 ft 352 kts 236°
2026-04-15 21:27 9.36743 -70.64187 37487 ft 350 kts 236°
2026-04-15 21:27 9.35351 -70.66216 37672 ft 351 kts 236°
2026-04-15 21:28 9.33959 -70.68244 37852 ft 351 kts 236°
2026-04-15 21:28 9.31133 -70.72363 37881 ft 362 kts 236°
2026-04-15 21:29 9.28215 -70.76603 37897 ft 373 kts 236°
2026-04-15 21:29 9.25200 -70.80982 37890 ft 385 kts 236°
2026-04-15 21:30 9.22095 -70.85495 37895 ft 397 kts 236°
2026-04-15 21:30 9.18898 -70.90144 37888 ft 408 kts 236°
2026-04-15 21:31 9.13958 -70.97312 37889 ft 415 kts 236°
2026-04-15 21:32 9.09006 -71.04502 37888 ft 416 kts 236°
2026-04-15 21:32 9.05700 -71.09300 37888 ft 415 kts 236°
2026-04-15 21:33 9.02391 -71.14099 37889 ft 417 kts 236°
2026-04-15 21:33 8.99063 -71.18922 37878 ft 418 kts 236°
2026-04-15 21:34 8.95745 -71.23729 37884 ft 416 kts 236°
2026-04-15 21:34 8.92452 -71.28500 37880 ft 417 kts 236°
2026-04-15 21:35 8.89139 -71.33301 37881 ft 416 kts 236°
2026-04-15 21:35 8.85815 -71.38117 37875 ft 418 kts 236°
2026-04-15 21:36 8.82485 -71.42930 37885 ft 417 kts 235°
2026-04-15 21:36 8.79159 -71.47734 37865 ft 416 kts 236°
2026-04-15 21:37 8.75844 -71.52527 37870 ft 416 kts 236°
2026-04-15 21:37 8.72521 -71.57334 37888 ft 420 kts 235°
2026-04-15 21:38 8.69150 -71.62202 37888 ft 427 kts 235°
2026-04-15 21:38 8.65706 -71.67173 37887 ft 436 kts 235°
2026-04-15 21:39 8.62220 -71.72202 37888 ft 437 kts 235°
2026-04-15 21:39 8.58729 -71.77236 37886 ft 438 kts 235°
2026-04-15 21:40 8.55237 -71.82273 37891 ft 438 kts 235°
2026-04-15 21:40 8.51743 -71.87313 37891 ft 439 kts 235°
2026-04-15 21:41 8.48238 -71.92365 37896 ft 439 kts 235°
2026-04-15 21:41 8.44737 -71.97410 37896 ft 439 kts 235°
2026-04-15 21:42 8.41267 -72.02409 37896 ft 440 kts 235°
2026-04-15 21:42 8.37754 -72.07466 37896 ft 440 kts 235°
2026-04-15 21:43 8.34242 -72.12520 37898 ft 440 kts 235°
2026-04-15 21:43 8.30726 -72.17578 37903 ft 440 kts 235°
2026-04-15 21:44 8.27212 -72.22630 37906 ft 440 kts 235°
2026-04-15 21:44 8.23342 -72.27406 37866 ft 441 kts 225°
2026-04-15 21:44 8.21062 -72.29478 37586 ft 442 kts 220°
2026-04-15 21:45 8.18638 -72.31383 37112 ft 441 kts 219°
2026-04-15 21:45 8.16225 -72.33279 36466 ft 440 kts 219°
2026-04-15 21:45 8.13812 -72.35181 35726 ft 438 kts 219°
2026-04-15 21:45 8.11414 -72.37077 34976 ft 438 kts 219°
2026-04-15 21:46 8.09009 -72.38979 34228 ft 441 kts 219°
2026-04-15 21:46 8.06583 -72.40896 33477 ft 445 kts 219°
2026-04-15 21:46 8.04125 -72.42837 32709 ft 452 kts 220°
2026-04-15 21:46 8.01631 -72.44807 31975 ft 457 kts 219°
2026-04-15 21:47 7.99110 -72.46797 31233 ft 464 kts 220°
2026-04-15 21:47 7.96561 -72.48814 30480 ft 465 kts 221°
2026-04-15 21:47 7.94164 -72.50987 29729 ft 464 kts 226°
2026-04-15 21:47 7.91992 -72.53400 28986 ft 464 kts 232°
2026-04-15 21:48 7.90075 -72.56003 28294 ft 460 kts 236°
2026-04-15 21:48 7.88260 -72.58628 27997 ft 452 kts 236°
2026-04-15 21:48 7.86443 -72.61235 27917 ft 458 kts 236°
2026-04-15 21:48 7.84604 -72.63869 27914 ft 459 kts 236°
2026-04-15 21:49 7.82756 -72.66515 27733 ft 468 kts 236°
2026-04-15 21:49 7.80862 -72.69227 27484 ft 475 kts 236°
2026-04-15 21:49 7.78980 -72.71921 27237 ft 475 kts 236°
2026-04-15 21:49 7.77087 -72.74627 26986 ft 471 kts 236°
2026-04-15 21:50 7.75197 -72.77335 26741 ft 474 kts 236°
2026-04-15 21:50 7.73284 -72.80080 26495 ft 481 kts 236°
2026-04-15 21:50 7.71341 -72.82858 26248 ft 485 kts 236°
2026-04-15 21:50 7.69402 -72.85626 26013 ft 482 kts 236°
2026-04-15 21:51 7.67474 -72.88384 25923 ft 482 kts 236°
2026-04-15 21:51 7.65535 -72.91156 25926 ft 483 kts 236°
2026-04-15 21:51 7.63599 -72.93925 25935 ft 482 kts 236°
2026-04-15 21:51 7.61671 -72.96682 25929 ft 481 kts 235°
2026-04-15 21:52 7.59739 -72.99444 25925 ft 483 kts 236°
2026-04-15 21:52 7.57806 -73.02212 25807 ft 482 kts 236°
2026-04-15 21:52 7.55883 -73.04962 25569 ft 485 kts 236°
2026-04-15 21:52 7.53942 -73.07734 25311 ft 484 kts 236°
2026-04-15 21:53 7.51992 -73.10521 25066 ft 490 kts 236°
2026-04-15 21:53 7.50026 -73.13330 24813 ft 490 kts 236°
2026-04-15 21:53 7.48062 -73.16135 24561 ft 489 kts 236°
2026-04-15 21:53 7.46106 -73.18927 24311 ft 490 kts 236°
2026-04-15 21:54 7.44161 -73.21701 24066 ft 492 kts 236°
2026-04-15 21:54 7.42187 -73.24519 23933 ft 491 kts 236°
2026-04-15 21:54 7.40219 -73.27327 23923 ft 490 kts 236°
2026-04-15 21:54 7.38250 -73.30134 23924 ft 491 kts 236°
2026-04-15 21:55 7.36281 -73.32946 23924 ft 490 kts 236°
2026-04-15 21:55 7.34313 -73.35757 23922 ft 491 kts 236°
2026-04-15 21:55 7.32979 -73.37661 23916 ft 492 kts 236°
2026-04-15 21:55 7.31006 -73.40473 23915 ft 492 kts 235°
2026-04-15 21:56 7.29032 -73.43285 23906 ft 492 kts 236°
2026-04-15 21:56 7.27055 -73.46101 23898 ft 492 kts 235°
2026-04-15 21:56 7.25080 -73.48915 23893 ft 492 kts 235°
2026-04-15 21:56 7.23107 -73.51725 23884 ft 492 kts 235°
2026-04-15 21:57 7.21129 -73.54541 23864 ft 493 kts 235°
2026-04-15 21:57 7.19154 -73.57356 23847 ft 492 kts 235°
2026-04-15 21:57 7.17178 -73.60169 23838 ft 492 kts 235°
2026-04-15 21:57 7.15228 -73.62943 23825 ft 492 kts 235°
2026-04-15 21:58 7.13246 -73.65764 23809 ft 493 kts 235°
2026-04-15 21:58 7.11267 -73.68578 23798 ft 493 kts 235°
2026-04-15 21:58 7.09283 -73.71396 23781 ft 492 kts 235°
2026-04-15 21:58 7.07301 -73.74215 23785 ft 493 kts 235°
2026-04-15 21:59 7.05135 -73.76879 23776 ft 493 kts 226°
2026-04-15 21:59 7.02499 -73.79091 23777 ft 495 kts 215°
2026-04-15 21:59 6.99480 -73.80757 23777 ft 496 kts 204°
2026-04-15 21:59 6.96192 -73.81805 23774 ft 498 kts 193°
2026-04-15 22:00 6.92781 -73.82450 23777 ft 498 kts 192°
2026-04-15 22:00 6.89373 -73.83081 23775 ft 498 kts 192°
2026-04-15 22:00 6.85967 -73.83716 23775 ft 498 kts 192°
2026-04-15 22:00 6.82561 -73.84357 23777 ft 498 kts 192°
2026-04-15 22:01 6.79157 -73.85002 23772 ft 498 kts 192°
2026-04-15 22:01 6.75750 -73.85639 23785 ft 498 kts 191°
2026-04-15 22:01 6.72343 -73.86268 23787 ft 498 kts 192°
2026-04-15 22:01 6.68947 -73.86905 23646 ft 496 kts 192°
2026-04-15 22:02 6.65562 -73.87539 23408 ft 495 kts 192°
2026-04-15 22:02 6.62185 -73.88172 23154 ft 492 kts 191°
2026-04-15 22:02 6.58822 -73.88800 22897 ft 490 kts 192°
2026-04-15 22:02 6.55476 -73.89426 22663 ft 488 kts 191°
2026-04-15 22:03 6.52140 -73.90049 22404 ft 486 kts 192°
2026-04-15 22:03 6.48819 -73.90671 22154 ft 484 kts 191°
2026-04-15 22:03 6.45580 -73.91277 21918 ft 483 kts 191°
2026-04-15 22:03 6.42284 -73.91894 21832 ft 482 kts 191°
2026-04-15 22:04 6.38980 -73.92510 21670 ft 481 kts 191°
2026-04-15 22:04 6.35697 -73.93124 21272 ft 479 kts 191°
2026-04-15 22:04 6.32435 -73.93734 20825 ft 475 kts 192°
2026-04-15 22:04 6.29200 -73.94339 20367 ft 473 kts 192°
2026-04-15 22:05 6.25976 -73.94942 19967 ft 469 kts 192°
2026-04-15 22:05 6.22772 -73.95540 19834 ft 468 kts 192°
2026-04-15 22:05 6.19573 -73.96138 19798 ft 469 kts 192°
2026-04-15 22:05 6.16367 -73.96737 19826 ft 469 kts 192°
2026-04-15 22:06 6.13159 -73.97336 19848 ft 468 kts 192°
2026-04-15 22:06 6.09958 -73.97935 19880 ft 469 kts 192°
2026-04-15 22:06 6.06749 -73.98535 19776 ft 468 kts 192°
2026-04-15 22:06 6.03551 -73.99133 19538 ft 467 kts 192°
2026-04-15 22:07 6.00407 -73.99886 19279 ft 463 kts 198°
2026-04-15 22:07 5.97390 -74.00887 19059 ft 450 kts 200°
2026-04-15 22:07 5.94471 -74.01864 18778 ft 432 kts 199°
2026-04-15 22:07 5.91663 -74.02798 18296 ft 420 kts 199°
2026-04-15 22:08 5.88926 -74.03707 17800 ft 409 kts 199°
2026-04-15 22:08 5.86255 -74.04595 17298 ft 400 kts 199°
2026-04-15 22:08 5.83643 -74.05464 16798 ft 391 kts 199°
2026-04-15 22:08 5.81083 -74.06315 16303 ft 383 kts 199°
2026-04-15 22:09 5.78577 -74.07149 15802 ft 377 kts 199°
2026-04-15 22:09 5.76107 -74.07970 15307 ft 371 kts 199°
2026-04-15 22:09 5.73675 -74.08779 14802 ft 365 kts 199°
2026-04-15 22:09 5.71280 -74.09576 14307 ft 361 kts 199°
2026-04-15 22:10 5.68911 -74.10364 13802 ft 356 kts 199°
2026-04-15 22:10 5.66569 -74.11143 13318 ft 352 kts 199°
2026-04-15 22:10 5.64284 -74.11903 13099 ft 339 kts 199°
2026-04-15 22:10 5.62100 -74.12629 13052 ft 322 kts 199°
2026-04-15 22:11 5.60032 -74.13315 13049 ft 304 kts 199°
2026-04-15 22:11 5.58038 -74.13977 13055 ft 308 kts 199°
2026-04-15 22:11 5.55981 -74.14660 13054 ft 312 kts 199°
2026-04-15 22:11 5.53958 -74.15333 13061 ft 310 kts 199°
2026-04-15 22:12 5.51886 -74.16022 13061 ft 310 kts 199°
2026-04-15 22:12 5.49836 -74.16704 13062 ft 310 kts 199°
2026-04-15 22:12 5.47815 -74.17375 13062 ft 310 kts 199°
2026-04-15 22:12 5.45767 -74.18053 13053 ft 310 kts 198°
2026-04-15 22:13 5.43713 -74.18734 13054 ft 310 kts 199°
2026-04-15 22:13 5.41668 -74.19414 13061 ft 310 kts 199°
2026-04-15 22:13 5.39621 -74.20094 13059 ft 310 kts 199°
2026-04-15 22:13 5.37573 -74.20775 13062 ft 310 kts 199°
2026-04-15 22:14 5.35527 -74.21455 13069 ft 310 kts 199°
2026-04-15 22:14 5.33480 -74.22134 13070 ft 310 kts 199°
2026-04-15 22:14 5.31434 -74.22813 13071 ft 310 kts 199°
2026-04-15 22:14 5.29386 -74.23493 13075 ft 310 kts 199°
2026-04-15 22:15 5.27341 -74.24172 13075 ft 310 kts 198°
2026-04-15 22:15 5.25295 -74.24851 13084 ft 311 kts 198°
2026-04-15 22:15 5.23145 -74.25565 13093 ft 339 kts 198°
2026-04-15 22:15 5.20920 -74.26303 13088 ft 329 kts 198°
2026-04-15 22:16 5.18801 -74.27006 13070 ft 313 kts 198°
2026-04-15 22:16 5.16789 -74.27673 13068 ft 296 kts 198°
2026-04-15 22:16 5.14889 -74.28302 13069 ft 279 kts 198°
2026-04-15 22:16 5.13097 -74.28896 13076 ft 263 kts 198°
2026-04-15 22:17 5.11417 -74.29451 13078 ft 246 kts 198°
2026-04-15 22:17 5.09843 -74.29974 13085 ft 230 kts 199°
2026-04-15 22:17 5.08328 -74.30476 13100 ft 232 kts 198°
2026-04-15 22:17 5.06797 -74.30984 13087 ft 232 kts 198°
2026-04-15 22:18 5.05259 -74.31495 13093 ft 233 kts 198°
2026-04-15 22:18 5.03722 -74.32005 13098 ft 233 kts 198°
2026-04-15 22:18 5.02188 -74.32514 13098 ft 231 kts 198°
2026-04-15 22:18 5.00705 -74.33005 13134 ft 219 kts 198°
2026-04-15 22:19 4.99262 -74.33483 13109 ft 222 kts 198°
2026-04-15 22:19 4.97793 -74.33970 13106 ft 222 kts 198°
2026-04-15 22:19 4.96321 -74.34458 13108 ft 223 kts 198°
2026-04-15 22:19 4.94879 -74.34937 13102 ft 209 kts 198°
2026-04-15 22:20 4.93569 -74.35371 13107 ft 194 kts 197°
2026-04-15 22:20 4.92275 -74.35800 13111 ft 200 kts 198°
2026-04-15 22:20 4.90957 -74.36237 13105 ft 198 kts 198°
2026-04-15 22:20 4.89637 -74.36645 13109 ft 205 kts 191°
2026-04-15 22:21 4.88168 -74.36488 13113 ft 221 kts 156°
2026-04-15 22:21 4.86922 -74.35601 13115 ft 221 kts 136°
2026-04-15 22:21 4.85888 -74.34430 13010 ft 222 kts 129°
2026-04-15 22:21 4.84956 -74.33197 12723 ft 221 kts 127°
2026-04-15 22:22 4.84062 -74.32011 12433 ft 211 kts 128°
2026-04-15 22:22 4.83199 -74.30871 12168 ft 200 kts 128°
2026-04-15 22:22 4.82378 -74.29786 11885 ft 191 kts 127°
2026-04-15 22:22 4.81568 -74.28719 11640 ft 193 kts 127°
2026-04-15 22:23 4.80758 -74.27648 11385 ft 192 kts 127°
2026-04-15 22:23 4.79951 -74.26583 11130 ft 192 kts 128°
2026-04-15 22:23 4.79137 -74.25508 10876 ft 193 kts 128°
2026-04-15 22:23 4.78338 -74.24452 10622 ft 189 kts 127°
2026-04-15 22:24 4.77536 -74.23392 10385 ft 190 kts 127°
2026-04-15 22:24 4.76713 -74.22306 10127 ft 203 kts 127°
2026-04-15 22:24 4.75860 -74.21179 9843 ft 203 kts 127°
2026-04-15 22:24 4.75025 -74.20075 9568 ft 190 kts 126°
2026-04-15 22:25 4.74243 -74.19044 9327 ft 189 kts 127°
2026-04-15 22:25 4.73445 -74.17987 9076 ft 187 kts 127°
2026-04-15 22:25 4.72657 -74.16948 8821 ft 187 kts 127°
2026-04-15 22:25 4.71889 -74.15928 8580 ft 176 kts 126°
2026-04-15 22:26 4.71157 -74.14964 8382 ft 165 kts 126°
2026-04-15 22:26 4.70544 -74.14158 8366 ft 105 kts 127°
2026-04-15 22:26 4.70352 -74.13900 8365 ft 11 kts 127°
2026-04-15 22:26 4.70281 -74.13859 8364 ft 13 kts 189°
2026-04-15 22:27 4.70213 -74.13909 8365 ft 13 kts 215°
2026-04-15 22:27 4.70136 -74.13967 8365 ft 15 kts 219°
2026-04-15 22:27 4.70047 -74.14028 8365 ft 16 kts 192°
2026-04-15 22:27 4.69972 -74.13984 8365 ft 9 kts 179°
2026-04-15 22:28 4.69908 -74.14005 8365 ft 6 kts 218°
2026-04-15 22:28 4.69896 -74.14013 8365 ft 0 kts 214°